Photometre #859[NE_1.6] Durban_UKZN AOT

File : 20200925_859.hum

25/09/2020,04:24:06,TEMP=23.4,BA=5.40,STAT.A=11.5,ExtBa=12.84
25/09/2020,04:27:03,TEMP=23.9,BA=5.40,STAT.A=11.5,ExtBa=12.65
25/09/2020,04:30:21,TEMP=24.1,BA=5.40,STAT.D=11.5,ExtBa=12.70
25/09/2020,04:32:17,TEMP=24.5,BA=5.40,STAT.A=11.5,ExtBa=12.69
25/09/2020,04:34:34,TEMP=24.6,BA=5.40,STAT.A=11.5,ExtBa=12.69
25/09/2020,04:39:21,TEMP=24.7,BA=5.40,STAT.D=11.5,ExtBa=12.73
25/09/2020,04:41:17,TEMP=25.2,BA=5.40,STAT.A=11.5,ExtBa=12.69
25/09/2020,04:45:21,TEMP=25.5,BA=5.40,STAT.D=11.5,ExtBa=12.72
25/09/2020,04:47:20,TEMP=26.0,BA=5.40,STAT.A=11.5,ExtBa=12.68
25/09/2020,04:51:21,TEMP=26.3,BA=5.44,STAT.D=11.5,ExtBa=12.72
25/09/2020,04:53:23,TEMP=26.8,BA=5.44,STAT.B=11.5,ExtBa=12.68
25/09/2020,05:02:28,TEMP=27.8,BA=5.40,STAT.A=11.5,ExtBa=12.64
25/09/2020,05:04:25,TEMP=28.0,BA=5.40,STAT.A=11.5,ExtBa=12.67
25/09/2020,05:06:22,TEMP=28.2,BA=5.40,STAT.A=11.5,ExtBa=12.68
25/09/2020,05:09:21,TEMP=28.2,BA=5.40,STAT.D=11.5,ExtBa=12.70
25/09/2020,05:11:19,TEMP=28.5,BA=5.40,STAT.A=11.5,ExtBa=12.68
25/09/2020,05:15:21,TEMP=28.3,BA=5.40,STAT.D=11.5,ExtBa=12.72
25/09/2020,05:17:18,TEMP=28.5,BA=5.40,STAT.C=11.5,ExtBa=12.68
25/09/2020,05:31:28,TEMP=28.9,BA=5.40,STAT.A=11.5,ExtBa=12.65
25/09/2020,05:33:31,TEMP=29.3,BA=5.40,STAT.A=11.5,ExtBa=12.69
25/09/2020,05:36:21,TEMP=29.5,BA=5.40,STAT.D=11.5,ExtBa=12.75
25/09/2020,05:39:22,TEMP=29.7,BA=5.40,STAT.D=12.5,ExtBa=12.77
25/09/2020,05:41:18,TEMP=30.0,BA=5.40,STAT.A=11.5,ExtBa=12.77
25/09/2020,05:45:22,TEMP=30.0,BA=5.40,STAT.D=12.5,ExtBa=12.79
25/09/2020,05:48:22,TEMP=30.3,BA=5.40,STAT.D=12.5,ExtBa=12.76
25/09/2020,05:51:22,TEMP=30.5,BA=5.44,STAT.D=12.5,ExtBa=12.75
25/09/2020,05:53:20,TEMP=30.8,BA=5.44,STAT.A=11.5,ExtBa=12.70
25/09/2020,05:57:22,TEMP=30.8,BA=5.44,STAT.D=12.5,ExtBa=12.74
25/09/2020,06:00:22,TEMP=31.0,BA=5.44,STAT.D=12.5,ExtBa=12.73
25/09/2020,06:03:22,TEMP=31.2,BA=5.44,STAT.D=12.5,ExtBa=12.77
25/09/2020,06:06:22,TEMP=31.3,BA=5.44,STAT.D=12.5,ExtBa=12.79
25/09/2020,06:08:23,TEMP=31.6,BA=5.44,STAT.B=12.5,ExtBa=12.77
25/09/2020,06:18:22,TEMP=31.4,BA=5.44,STAT.D=12.5,ExtBa=12.76
25/09/2020,06:21:22,TEMP=31.4,BA=5.44,STAT.D=12.5,ExtBa=12.83
25/09/2020,06:24:22,TEMP=31.5,BA=5.44,STAT.D=12.5,ExtBa=12.89
25/09/2020,06:27:22,TEMP=31.5,BA=5.44,STAT.D=12.5,ExtBa=12.92
25/09/2020,06:30:22,TEMP=31.6,BA=5.48,STAT.D=12.5,ExtBa=12.95
25/09/2020,06:33:22,TEMP=31.8,BA=5.48,STAT.D=12.5,ExtBa=12.96
25/09/2020,06:36:19,TEMP=31.9,BA=5.48,STAT.B=12.5,ExtBa=12.94
25/09/2020,06:45:22,TEMP=32.3,BA=5.44,STAT.D=12.5,ExtBa=12.76
25/09/2020,06:48:17,TEMP=32.4,BA=5.44,STAT.F,ExtBa=12.89
25/09/2020,07:03:15,TEMP=33.4,BA=5.44,STAT.D=12.5,ExtBa=12.83
25/09/2020,07:06:22,TEMP=33.6,BA=5.44,STAT.D=12.5,ExtBa=12.98
25/09/2020,07:09:22,TEMP=33.9,BA=5.44,STAT.D=12.5,ExtBa=13.08
25/09/2020,07:12:22,TEMP=34.1,BA=5.44,STAT.D=12.5,ExtBa=13.14
25/09/2020,07:15:22,TEMP=34.3,BA=5.44,STAT.D=12.5,ExtBa=13.19
25/09/2020,07:18:15,TEMP=34.5,BA=5.44,STAT.D=12.5,ExtBa=13.22
25/09/2020,07:21:22,TEMP=34.7,BA=5.48,STAT.D=12.5,ExtBa=13.27
25/09/2020,07:24:23,TEMP=34.9,BA=5.48,STAT.D=12.5,ExtBa=13.30
25/09/2020,07:27:22,TEMP=35.2,BA=5.48,STAT.D=12.5,ExtBa=13.29
25/09/2020,07:30:23,TEMP=35.3,BA=5.48,STAT.D=12.5,ExtBa=13.22
25/09/2020,07:33:16,TEMP=35.5,BA=5.48,STAT.D=12.5,ExtBa=13.30
25/09/2020,07:36:23,TEMP=35.7,BA=5.48,STAT.D=12.5,ExtBa=13.32
25/09/2020,07:39:23,TEMP=36.0,BA=5.48,STAT.D=12.5,ExtBa=13.32
25/09/2020,07:42:23,TEMP=36.3,BA=5.48,STAT.D=12.5,ExtBa=13.33
25/09/2020,07:45:23,TEMP=36.6,BA=5.48,STAT.D=12.5,ExtBa=13.33
25/09/2020,07:48:17,TEMP=37.0,BA=5.48,STAT.F,ExtBa=13.33
25/09/2020,08:08:06,TEMP=38.7,BA=5.48,STAT.D=13.0,ExtBa=13.14
25/09/2020,08:12:23,TEMP=38.9,BA=5.48,STAT.D=13.0,ExtBa=13.33
25/09/2020,08:15:23,TEMP=39.2,BA=5.48,STAT.D=13.0,ExtBa=13.26
25/09/2020,08:18:16,TEMP=39.2,BA=5.48,STAT.D=13.0,ExtBa=13.29
25/09/2020,08:21:23,TEMP=39.2,BA=5.48,STAT.D=13.0,ExtBa=13.27
25/09/2020,08:24:23,TEMP=39.1,BA=5.48,STAT.D=13.0,ExtBa=13.19
25/09/2020,08:33:16,TEMP=38.7,BA=5.48,STAT.D=13.0,ExtBa=13.27
25/09/2020,08:36:23,TEMP=39.0,BA=5.48,STAT.D=13.0,ExtBa=13.26
25/09/2020,08:39:23,TEMP=39.3,BA=5.48,STAT.D=13.0,ExtBa=13.32
25/09/2020,08:42:23,TEMP=39.7,BA=5.48,STAT.D=13.0,ExtBa=13.32
25/09/2020,08:45:23,TEMP=39.8,BA=5.48,STAT.D=13.0,ExtBa=13.29
25/09/2020,08:48:18,TEMP=39.9,BA=5.48,STAT.F,ExtBa=13.21
25/09/2020,08:54:23,TEMP=39.9,BA=5.48,STAT.D=13.0,ExtBa=13.12
25/09/2020,08:57:23,TEMP=39.9,BA=5.48,STAT.D=13.0,ExtBa=13.08
25/09/2020,09:00:23,TEMP=39.7,BA=5.48,STAT.D=13.0,ExtBa=13.08
25/09/2020,09:03:16,TEMP=39.6,BA=5.48,STAT.D=13.0,ExtBa=13.03
25/09/2020,09:15:24,TEMP=38.2,BA=5.48,STAT.D=13.0,ExtBa=13.21
25/09/2020,09:18:17,TEMP=38.3,BA=5.48,STAT.D=13.0,ExtBa=13.20
25/09/2020,09:21:24,TEMP=38.1,BA=5.48,STAT.D=13.0,ExtBa=13.19
25/09/2020,09:24:24,TEMP=38.0,BA=5.48,STAT.D=13.0,ExtBa=13.22
25/09/2020,09:27:24,TEMP=37.9,BA=5.48,STAT.D=13.0,ExtBa=13.19
25/09/2020,09:30:24,TEMP=37.8,BA=5.48,STAT.D=13.0,ExtBa=13.20
25/09/2020,09:33:17,TEMP=37.8,BA=5.48,STAT.D=13.0,ExtBa=13.31
25/09/2020,09:36:24,TEMP=37.9,BA=5.48,STAT.D=13.0,ExtBa=13.36
25/09/2020,09:39:24,TEMP=38.0,BA=5.48,STAT.D=13.0,ExtBa=13.26
25/09/2020,09:42:24,TEMP=38.0,BA=5.48,STAT.D=13.0,ExtBa=13.34
25/09/2020,09:45:24,TEMP=38.1,BA=5.48,STAT.D=13.0,ExtBa=13.38
25/09/2020,09:48:19,TEMP=38.4,BA=5.48,STAT.F,ExtBa=13.34
25/09/2020,09:54:32,TEMP=38.5,BA=5.48,STAT.b=13.0
25/09/2020,09:57:24,TEMP=38.0,BA=5.48,STAT.D=13.0,ExtBa=13.37
25/09/2020,10:00:24,TEMP=38.0,BA=5.48,STAT.D=13.0,ExtBa=13.37
25/09/2020,10:03:17,TEMP=37.9,BA=5.48,STAT.D=13.0,ExtBa=13.39
25/09/2020,10:06:24,TEMP=37.8,BA=5.48,STAT.D=13.0,ExtBa=13.37
25/09/2020,10:09:24,TEMP=37.9,BA=5.48,STAT.D=13.0,ExtBa=13.38
25/09/2020,10:12:24,TEMP=37.9,BA=5.48,STAT.D=13.0,ExtBa=13.40
25/09/2020,10:15:24,TEMP=38.0,BA=5.48,STAT.D=13.0,ExtBa=13.35
25/09/2020,10:18:17,TEMP=38.2,BA=5.48,STAT.D=13.0,ExtBa=13.38
25/09/2020,10:21:24,TEMP=38.4,BA=5.48,STAT.D=13.0,ExtBa=13.41
25/09/2020,10:24:24,TEMP=38.5,BA=5.48,STAT.D=13.0,ExtBa=13.42
25/09/2020,10:27:23,TEMP=38.5,BA=5.48,STAT.D=13.0,ExtBa=13.42
25/09/2020,10:30:24,TEMP=38.4,BA=5.48,STAT.D=13.0,ExtBa=13.43
25/09/2020,10:33:17,TEMP=38.2,BA=5.48,STAT.D=13.0,ExtBa=13.43
25/09/2020,10:36:23,TEMP=38.1,BA=5.48,STAT.D=13.0,ExtBa=13.44
25/09/2020,10:39:23,TEMP=38.2,BA=5.48,STAT.D=13.0,ExtBa=13.44
25/09/2020,10:42:23,TEMP=38.2,BA=5.48,STAT.D=13.0,ExtBa=13.45
25/09/2020,10:45:23,TEMP=38.4,BA=5.48,STAT.D=13.0,ExtBa=13.44
25/09/2020,10:48:18,TEMP=38.5,BA=5.48,STAT.F,ExtBa=13.45
25/09/2020,10:54:54,TEMP=38.8,BA=5.48,STAT.b=13.0
25/09/2020,10:57:22,TEMP=38.7,BA=5.48,STAT.D=13.0,ExtBa=13.43
25/09/2020,11:00:23,TEMP=38.7,BA=5.48,STAT.D=13.0,ExtBa=13.46
25/09/2020,11:03:16,TEMP=38.7,BA=5.48,STAT.D=13.0,ExtBa=13.47
25/09/2020,11:06:23,TEMP=38.6,BA=5.48,STAT.D=13.0,ExtBa=13.50
25/09/2020,11:09:23,TEMP=38.6,BA=5.48,STAT.D=13.0,ExtBa=13.50
25/09/2020,11:12:23,TEMP=38.7,BA=5.44,STAT.D=13.0,ExtBa=13.51
25/09/2020,11:15:23,TEMP=38.6,BA=5.44,STAT.D=13.0,ExtBa=13.52
25/09/2020,11:18:16,TEMP=38.6,BA=5.44,STAT.D=13.0,ExtBa=13.53
25/09/2020,11:21:23,TEMP=38.6,BA=5.48,STAT.D=13.0,ExtBa=13.54
25/09/2020,11:24:23,TEMP=38.7,BA=5.48,STAT.D=13.0,ExtBa=13.55
25/09/2020,11:27:23,TEMP=38.7,BA=5.48,STAT.D=13.0,ExtBa=13.55
25/09/2020,11:30:23,TEMP=38.5,BA=5.48,STAT.D=13.0,ExtBa=13.56
25/09/2020,11:33:16,TEMP=38.4,BA=5.48,STAT.D=13.0,ExtBa=13.57
25/09/2020,11:36:23,TEMP=38.3,BA=5.48,STAT.D=13.0,ExtBa=13.59
25/09/2020,11:39:23,TEMP=38.4,BA=5.48,STAT.D=13.0,ExtBa=13.61
25/09/2020,11:42:23,TEMP=38.4,BA=5.44,STAT.D=13.0,ExtBa=13.45
25/09/2020,11:45:23,TEMP=38.3,BA=5.44,STAT.D=13.0,ExtBa=13.55
25/09/2020,11:48:17,TEMP=38.3,BA=5.44,STAT.F,ExtBa=13.27
25/09/2020,12:00:23,TEMP=36.9,BA=5.48,STAT.D=13.0,ExtBa=13.18
25/09/2020,12:03:16,TEMP=36.9,BA=5.48,STAT.D=13.0,ExtBa=13.10
25/09/2020,12:15:22,TEMP=36.0,BA=5.48,STAT.D=13.0,ExtBa=13.09
25/09/2020,12:18:15,TEMP=36.0,BA=5.48,STAT.D=13.0,ExtBa=13.00
25/09/2020,12:30:22,TEMP=35.0,BA=5.48,STAT.D=13.0,ExtBa=13.03
25/09/2020,12:33:15,TEMP=35.2,BA=5.48,STAT.D=13.0,ExtBa=12.91
25/09/2020,12:36:22,TEMP=35.2,BA=5.48,STAT.D=13.0,ExtBa=12.90
25/09/2020,12:48:17,TEMP=34.7,BA=5.48,STAT.F,ExtBa=12.93
25/09/2020,13:00:15,TEMP=34.3,BA=5.44,STAT.B=13.0,ExtBa=12.93
25/09/2020,13:12:22,TEMP=34.4,BA=5.48,STAT.D=13.0,ExtBa=13.16
25/09/2020,13:15:22,TEMP=34.9,BA=5.48,STAT.D=13.0,ExtBa=13.13
25/09/2020,13:18:22,TEMP=35.2,BA=5.48,STAT.D=12.5,ExtBa=12.97
25/09/2020,13:29:58,TEMP=34.8,BA=5.48,STAT.B=13.0,ExtBa=12.91
25/09/2020,13:39:22,TEMP=35.0,BA=5.44,STAT.D=13.0,ExtBa=12.93
25/09/2020,13:42:22,TEMP=35.1,BA=5.44,STAT.D=12.5,ExtBa=12.91
25/09/2020,13:44:19,TEMP=35.4,BA=5.44,STAT.A=12.5,ExtBa=12.92
25/09/2020,13:48:22,TEMP=35.2,BA=5.44,STAT.D=12.5,ExtBa=12.91
25/09/2020,13:51:22,TEMP=35.0,BA=5.48,STAT.D=12.5,ExtBa=12.85
25/09/2020,13:55:46,TEMP=34.3,BA=5.48,STAT.A=13.0,ExtBa=12.86
25/09/2020,14:05:16,TEMP=31.1,BA=5.44,STAT.A=13.0,ExtBa=12.88
25/09/2020,14:13:15,TEMP=27.7,BA=5.44,STAT.A=13.0,ExtBa=12.86
25/09/2020,14:15:21,TEMP=27.3,BA=5.44,STAT.D=12.5,ExtBa=12.80
25/09/2020,14:18:21,TEMP=26.5,BA=5.44,STAT.D=12.5,ExtBa=12.83
25/09/2020,14:20:21,TEMP=26.3,BA=5.44,STAT.C=12.5,ExtBa=12.80
25/09/2020,14:30:13,TEMP=24.7,BA=5.44,STAT.A=12.5,ExtBa=12.77
25/09/2020,14:32:09,TEMP=24.5,BA=5.44,STAT.A=12.5,ExtBa=12.77
25/09/2020,14:35:43,TEMP=23.8,BA=5.44,STAT.A=12.5,ExtBa=12.80
25/09/2020,14:39:21,TEMP=23.5,BA=5.44,STAT.D=12.5,ExtBa=12.79
25/09/2020,14:41:17,TEMP=23.7,BA=5.40,STAT.A=11.5,ExtBa=12.77
25/09/2020,14:43:24,TEMP=23.6,BA=5.40,STAT.B=11.5,ExtBa=12.76
25/09/2020,14:51:51,TEMP=23.3,BA=5.40,STAT.A=11.5,ExtBa=12.72
25/09/2020,14:59:38,TEMP=23.0,BA=5.40,STAT.A=12.5,ExtBa=12.80
25/09/2020,15:01:58,TEMP=23.3,BA=5.40,STAT.A=11.5,ExtBa=12.77
25/09/2020,15:06:03,TEMP=23.1,BA=5.40,STAT.A=11.5,ExtBa=12.78
25/09/2020,15:09:28,TEMP=23.1,BA=5.40,STAT.A=11.5,ExtBa=12.77
25/09/2020,15:12:25,TEMP=23.2,BA=5.40,STAT.A=11.5,ExtBa=12.76